Location: North Evanston
(42.0634°N, 87.6976°W)
Time: 20:46:06
(UTC+00:00)

Injun/Solrad 3 - Pass Details

Date: 14 May 2026
Orbit: 867 x 989 km, 66.8° (Epoch: 6 June)

Event Time Altitude Azimuth Distance (km) Brightness Sun altitude
Rises 20:29:21 0° 180° (S) 3,489 11.1 48.6°
Reaches altitude 10° 20:32:01 10° 171° (S) 2,570 10.5 48.1°
Maximum altitude 20:37:17 33° 109° (ESE) 1,486 9.0 47.2°
Drops below altitude 10° 20:42:44 10° 47° (NE) 2,661 10.0 46.2°
Sets 20:45:32 0° 39° (NE) 3,630 10.6 45.8°
